[[{"header":{"parameterUnit":"m.s-1","parameterCategory":1,"la1":30.2991,"la2":30.254,"lo1":-89.0895,"lo2":-89.0444,"dy":0.0017,"dx":0.0017,"nx":28,"ny":28,"refTime":"2025-04-30T09:00:00:Z","depth":0,"parameterNumber":2,"parameterNumberName":"U-component_of_WINDS"},"data":[0,0,0,0,0,0,0,0,0,0,0,0,0,0,0,0,0,0,0,0,0,0,0,0,0,0,0,0,0,0,0,0,0,0,0,0,0,0,0,0,0,0,0,0,0,0,0,0,0,0,0,0,0,0,0,0,0,0,-3.6218,-3.6218,0,-3.6248,-3.6249,-3.6249,-3.6209,-3.6207,-3.6206,-3.6205,-3.6235,-3.6238,-3.624,0,0,0,0,0,0,0,0,0,0,0,0,0,-3.6126,-3.6128,-3.6218,-3.6218,-3.6219,-3.6248,-3.6249,-3.6249,-3.6209,-3.6207,-3.6206,-3.6204,-3.6235,-3.6237,-3.624,0,0,0,0,0,0,0,0,0,0,0,0,0,-3.6162,-3.6128,-3.6218,-3.6202,-3.6201,-3.6248,-3.6249,-3.6249,-3.6209,-3.6207,-3.6205,-3.6203,-3.6234,-3.6237,-3.624,-3.6304,0,0,-3.625,-3.6252,0,0,0,0,0,0,0,0,-3.616,-3.6166,-3.6204,-3.6203,-3.6202,-3.6223,-3.6228,-3.6268,-3.621,-3.6206,-3.6204,-3.6202,-3.6233,-3.6236,-3.6247,-3.6306,-3.6307,-3.6251,-3.6253,-3.6254,-3.6255,0,0,0,0,0,0,0,-3.6158,-3.6164,-3.623,-3.6205,-3.6204,-3.6194,-3.6197,-3.6235,-3.6231,-3.6206,-3.6204,-3.6208,-3.6232,-3.6244,-3.6247,-3.6307,-3.6251,-3.6253,-3.6255,-3.6257,-3.6421,-3.6424,0,0,0,0,0,0,-3.6157,-3.6162,-3.6229,-3.6231,-3.6175,-3.6198,-3.6201,-3.6218,-3.6231,-3.6231,-3.621,-3.6206,-3.6239,-3.6243,-3.6248,-3.6323,-3.6254,-3.6257,-3.6259,-3.6419,-3.6422,-3.6425,0,0,0,0,0,0,-3.6155,-3.6163,-3.6228,-3.6196,-3.6203,-3.6201,-3.6222,-3.622,-3.6231,-3.6233,-3.6233,-3.6222,-3.6238,-3.6243,-3.6291,-3.6324,-3.6259,-3.6261,-3.6416,-3.642,-3.6423,-3.6475,0,0,0,0,0,0,-3.6153,-3.6163,-3.6187,-3.6197,-3.6205,-3.627,-3.6224,-3.6222,-3.6237,-3.6233,-3.6245,-3.6245,-3.6236,-3.6286,-3.6294,-3.6327,-3.6264,-3.6413,-3.6418,-3.6422,-3.647,-3.648,-3.6488,0,0,0,0,0,-3.6149,-3.62,-3.6188,-3.6196,-3.6235,-3.6272,-3.6276,-3.6266,-3.624,-3.6264,-3.6266,-3.6244,-3.632,-3.6291,-3.63,-3.6335,-3.6411,-3.6417,-3.6422,-3.6466,-3.6478,-3.6488,0,0,0,0,0,0,-3.6193,-3.6201,-3.6188,-3.6243,-3.6257,-3.6265,-3.6294,-3.6279,-3.63,-3.6295,-3.6281,-3.6284,-3.6335,-3.634,-3.6308,-3.6398,-3.6361,-3.6369,-3.6392,-3.6403,-3.6412,-3.6409,-3.6267,0,0,0,0,0,-3.6209,-3.6238,-3.6244,-3.6292,-3.63,-3.6296,-3.6312,-3.6303,-3.6317,-3.6322,-3.6327,-3.6342,-3.6369,-3.6387,-3.6412,-3.6472,-3.6474,-3.65,-3.6509,-3.6517,-3.6522,-3.6555,-3.6567,-3.6442,-3.6442,-3.6442,0,0,-3.6242,-3.625,-3.6269,-3.6301,-3.631,-3.6341,-3.6301,-3.6335,-3.6358,-3.6327,-3.6372,-3.6377,-3.6392,-3.6446,-3.6471,-3.6452,-3.6558,-3.6524,-3.6529,-3.6531,-3.6562,-3.6574,-3.6584,-3.6446,-3.6445,-3.6445,0,0,-3.6318,-3.6327,-3.6368,-3.6379,-3.6395,-3.6393,-3.6403,-3.6414,-3.6416,-3.6461,-3.6439,-3.6467,-3.6513,-3.6525,-3.6538,-3.6621,-3.6602,-3.663,-3.6676,-3.6708,-3.6717,-3.6726,-3.6755,-3.6766,-3.6636,-3.6636,-3.6637,0,-3.6357,-3.6402,-3.6391,-3.6427,-3.6442,-3.6417,-3.6458,-3.647,-3.6493,-3.6504,-3.6484,-3.6543,-3.6552,-3.6608,-3.6629,-3.664,-3.6651,-3.6627,-3.6717,-3.6726,-3.6733,-3.6761,-3.6772,-3.664,-3.6639,-3.6639,-3.6639,0,-3.6449,-3.6481,-3.6512,-3.6535,-3.6554,-3.6593,-3.6588,-3.6609,-3.6599,-3.6599,-3.6646,-3.6656,-3.6683,-3.6696,-3.6687,-3.6752,-3.674,-3.6719,-3.6681,-3.6749,-3.6774,-3.6785,-3.6644,-3.6643,-3.6642,-3.6641,0,0,-3.655,-3.6569,-3.658,-3.6591,-3.6608,-3.6632,-3.6671,-3.6697,-3.6715,-3.6733,-3.6764,-3.6806,-3.6786,-3.6801,-3.6793,-3.6821,-3.6886,-3.6796,-3.6796,-3.6811,-3.6959,-3.6973,-3.6986,-3.6875,-3.6877,-3.6879,-3.6957,0,-3.6625,-3.669,-3.6683,-3.6745,-3.6775,-3.6753,-3.6787,-3.6801,-3.6803,-3.6829,-3.6832,-3.6861,-3.6833,-3.6842,-3.6869,-3.6872,-3.6915,-3.6867,-3.6904,-3.6905,-3.6898,-3.6999,-3.7014,-3.7087,-3.6967,-3.6969,-3.697,0,-3.672,-3.6741,-3.6807,-3.682,-3.6833,-3.6863,-3.6887,-3.6912,-3.6929,-3.6928,-3.6945,-3.6933,-3.6972,-3.6937,-3.699,-3.6958,-3.6973,-3.6977,-3.698,-3.6981,-3.694,-3.7001,-3.7111,-3.7121,-3.6986,-3.6984,-3.6983,0,-3.6785,-3.6831,-3.6876,-3.6886,-3.6904,-3.6925,-3.6934,-3.6948,-3.6965,-3.6987,-3.6998,-3.7024,-3.7038,-3.706,-3.7055,-3.703,-3.711,-3.7074,-3.7111,-3.7111,-3.7126,-3.7125,-3.7238,-3.714,-3.714,-3.7139,-3.7139,0,-3.6868,-3.6909,-3.6906,-3.6934,-3.6979,-3.6971,-3.7017,-3.7022,-3.7036,-3.7065,-3.7049,-3.7076,-3.707,-3.7097,-3.7095,-3.7139,-3.7146,-3.7147,-3.7145,-3.7147,-3.7147,-3.7155,-3.7149,-3.7142,-3.7142,-3.7141,-3.7141,0,-3.6948,-3.6948,-3.6996,-3.7009,-3.7013,-3.7046,-3.7057,-3.7084,-3.7086,-3.7122,-3.7131,-3.7134,-3.7165,-3.7164,-3.72,-3.7198,-3.7253,-3.7247,-3.7247,-3.7245,-3.7282,-3.7278,-3.7402,-3.7418,-3.7311,-3.7312,-3.7313,0,-3.7,-3.7031,-3.7048,-3.7066,-3.7076,-3.7105,-3.7123,-3.7117,-3.7136,-3.7159,-3.7183,-3.7213,-3.7237,-3.7289,-3.7295,-3.7322,-3.7315,-3.7357,-3.7319,-3.7321,-3.7315,-3.7312,-3.7315,-3.7364,-3.7365,-3.7366,-3.7367,0,-3.7092,-3.7091,-3.7117,-3.7143,-3.7164,-3.7185,-3.7204,-3.722,-3.7217,-3.7239,-3.7271,-3.729,-3.7327,-3.7358,-3.7385,-3.7394,-3.738,-3.7379,-3.7389,-3.739,-3.7389,-3.7389,-3.7266,-3.7376,-3.7375,-3.7374,-3.7374,-3.7373,-3.7159,-3.7185,-3.7201,-3.7231,-3.7245,-3.7263,-3.7289,-3.7295,-3.7321,-3.7351,-3.7347,-3.7383,-3.7401,-3.7436,-3.7448,-3.7477,-3.7462,-3.7476,-3.7479,-3.7483,-3.7486,-3.7386,-3.7482,-3.7481,-3.7481,-3.7481,-3.7481,0,-3.7249,-3.7259,-3.7286,-3.7313,-3.7337,-3.7323,-3.7343,-3.7364,-3.7396,-3.7414,-3.7438,-3.7476,-3.7506,-3.7515,-3.7544,-3.7566,-3.756,-3.7573,-3.7571,-3.7573,-3.7498,-3.7486,-3.7577,-3.7577,-3.7577,-3.7577,-3.7577,-3.7577,-3.7298,-3.7342,-3.7344,-3.7395,-3.7405,-3.744,-3.7453,-3.747,-3.7484,-3.7527,-3.7552,-3.7558,-3.7573,-3.7603,-3.763,-3.7632,-3.7643,-3.7659,-3.7658,-3.7588,-3.7578,-3.7569,-3.7557,-3.7662,-3.7662,-3.773,-3.7731,-3.7732]},{"header":{"parameterUnit":"m.s-1","parameterCategory":1,"la1":30.2991,"la2":30.254,"lo1":-89.0895,"lo2":-89.0444,"dy":0.0017,"dx":0.0017,"nx":28,"ny":28,"refTime":"2025-04-30T09:00:00:Z","depth":0,"parameterNumber":3,"parameterNumberName":"V-component_of_WINDS"},"data":[0,0,0,0,0,0,0,0,0,0,0,0,0,0,0,0,0,0,0,0,0,0,0,0,0,0,0,0,0,0,0,0,0,0,0,0,0,0,0,0,0,0,0,0,0,0,0,0,0,0,0,0,0,0,0,0,0,0,4.7039,4.704,0,4.7076,4.7077,4.7077,4.7098,4.7098,4.7098,4.7098,4.7132,4.7133,4.7134,0,0,0,0,0,0,0,0,0,0,0,0,0,4.6982,4.6983,4.7039,4.704,4.704,4.7076,4.7077,4.7077,4.7098,4.7098,4.7098,4.7098,4.7132,4.7133,4.7134,0,0,0,0,0,0,0,0,0,0,0,0,0,4.7011,4.6983,4.7039,4.7055,4.7056,4.7076,4.7077,4.7077,4.7098,4.7098,4.7098,4.7098,4.7131,4.7133,4.7134,4.7139,0,0,4.7138,4.7138,0,0,0,0,0,0,0,0,4.701,4.7013,4.7052,4.7054,4.7056,4.7083,4.7069,4.7098,4.7098,4.7082,4.7098,4.7098,4.7115,4.7118,4.7124,4.7141,4.7142,4.7138,4.7138,4.7139,4.7139,0,0,0,0,0,0,0,4.7008,4.7012,4.7054,4.7052,4.7055,4.7059,4.7063,4.7075,4.7097,4.7083,4.7085,4.7089,4.7116,4.7123,4.7125,4.7143,4.7138,4.7139,4.714,4.714,4.7166,4.7166,0,0,0,0,0,0,4.7004,4.701,4.7052,4.7055,4.7033,4.7059,4.7064,4.7074,4.7097,4.7101,4.7089,4.709,4.7121,4.7124,4.7127,4.7135,4.7139,4.714,4.7141,4.7166,4.7166,4.7166,0,0,0,0,0,0,4.7002,4.7007,4.7051,4.7033,4.7039,4.706,4.7071,4.7074,4.7081,4.7102,4.7105,4.7092,4.7121,4.7125,4.7136,4.7136,4.7141,4.7142,4.7166,4.7166,4.7166,4.7151,0,0,0,0,0,0,4.7001,4.7007,4.701,4.7033,4.704,4.7061,4.7071,4.7075,4.7084,4.7086,4.7106,4.7109,4.7121,4.7134,4.7138,4.7138,4.7143,4.7166,4.7166,4.7166,4.7152,4.7151,4.715,0,0,0,0,0,4.6999,4.7004,4.701,4.7015,4.7045,4.7061,4.7065,4.708,4.7084,4.7087,4.71,4.7108,4.7136,4.7135,4.7139,4.714,4.7166,4.7166,4.7166,4.7152,4.7151,4.715,0,0,0,0,0,0,4.6978,4.7007,4.7014,4.7027,4.7042,4.7065,4.7069,4.7078,4.7091,4.7092,4.7109,4.7113,4.7123,4.7133,4.7132,4.7147,4.7152,4.7152,4.714,4.7139,4.7138,4.7135,4.7144,0,0,0,0,0,4.6976,4.6988,4.7012,4.7021,4.7028,4.7047,4.7055,4.7066,4.7081,4.7087,4.7101,4.7114,4.7126,4.7133,4.7144,4.7153,4.7157,4.7156,4.7154,4.7153,4.7154,4.7159,4.7158,4.7165,4.7165,4.7165,0,0,4.697,4.6987,4.6994,4.7017,4.703,4.7041,4.7052,4.7064,4.7072,4.7088,4.71,4.7111,4.7127,4.7137,4.7142,4.7145,4.7153,4.7153,4.7152,4.7153,4.7158,4.7158,4.7157,4.7165,4.7165,4.7165,0,0,4.6965,4.698,4.6989,4.7002,4.7021,4.7034,4.7036,4.7058,4.7066,4.7078,4.7091,4.71,4.712,4.7131,4.7139,4.7138,4.7146,4.7141,4.7135,4.714,4.714,4.7139,4.7139,4.7138,4.7141,4.7141,4.7141,0,4.6955,4.6974,4.6992,4.7003,4.7013,4.7029,4.7038,4.7049,4.7071,4.7076,4.708,4.7105,4.7117,4.713,4.713,4.7136,4.7138,4.7139,4.7138,4.7138,4.7138,4.7138,4.7138,4.7141,4.7141,4.7141,4.7141,0,4.6961,4.6974,4.6979,4.7001,4.7011,4.7021,4.7039,4.7047,4.7056,4.7068,4.708,4.7095,4.711,4.7114,4.7123,4.7128,4.713,4.7135,4.7141,4.7136,4.7136,4.7136,4.714,4.714,4.714,4.714,0,0,4.6945,4.6977,4.6978,4.6989,4.7011,4.7021,4.7031,4.7047,4.7053,4.7067,4.7076,4.7092,4.7098,4.7107,4.7117,4.7121,4.712,4.7127,4.7127,4.7125,4.7126,4.7121,4.7121,4.7125,4.7125,4.7125,4.7124,0,4.6943,4.6964,4.698,4.6994,4.7006,4.7022,4.703,4.7044,4.7056,4.7066,4.7078,4.7089,4.7096,4.7102,4.7107,4.7119,4.712,4.7119,4.7132,4.7132,4.7128,4.7121,4.7116,4.7115,4.7125,4.7125,4.7125,0,4.6945,4.696,4.6975,4.6997,4.7003,4.701,4.7026,4.7037,4.7052,4.706,4.7071,4.7081,4.7091,4.7096,4.711,4.7109,4.7115,4.7121,4.7122,4.7123,4.7128,4.7122,4.7115,4.7114,4.7125,4.7125,4.7125,0,4.6931,4.6955,4.6968,4.6976,4.7002,4.7007,4.7017,4.7033,4.7042,4.7055,4.7061,4.7075,4.7082,4.7092,4.7106,4.7108,4.7118,4.7123,4.7124,4.7123,4.7125,4.7125,4.7118,4.7129,4.7129,4.7129,4.7129,0,4.6928,4.6937,4.6963,4.697,4.698,4.6998,4.7007,4.7019,4.7033,4.7042,4.7056,4.7064,4.7081,4.7091,4.7102,4.7111,4.7114,4.712,4.7123,4.7119,4.7118,4.7123,4.7124,4.7129,4.7129,4.7129,4.7129,0,4.6915,4.6933,4.6947,4.6971,4.6976,4.6983,4.7002,4.7009,4.7021,4.7033,4.7036,4.7055,4.7067,4.7082,4.7099,4.7106,4.7114,4.7118,4.7109,4.7111,4.711,4.711,4.7106,4.7107,4.7117,4.7117,4.7117,0,4.6912,4.692,4.6944,4.6952,4.6962,4.6975,4.6984,4.7001,4.701,4.7029,4.7033,4.7047,4.7059,4.7077,4.7091,4.7104,4.7109,4.7106,4.711,4.7106,4.7108,4.7108,4.7108,4.7105,4.7105,4.7105,4.7105,0,4.6905,4.6913,4.6927,4.6943,4.6954,4.6968,4.6982,4.6987,4.7007,4.7016,4.7029,4.7038,4.7056,4.7069,4.7083,4.7093,4.7102,4.7103,4.7104,4.71,4.7095,4.7098,4.7106,4.7103,4.7104,4.7104,4.7104,4.7104,4.6897,4.6904,4.6923,4.6937,4.695,4.6962,4.6971,4.6984,4.6996,4.7013,4.7022,4.7035,4.705,4.707,4.7079,4.7089,4.7092,4.7093,4.7093,4.7093,4.7092,4.7093,4.7091,4.7091,4.7092,4.7092,4.7092,0,4.689,4.6903,4.6916,4.6936,4.6947,4.6956,4.6972,4.698,4.6992,4.7006,4.7017,4.7033,4.7045,4.706,4.7074,4.7078,4.7083,4.7081,4.7081,4.7083,4.7089,4.7087,4.7078,4.7078,4.7078,4.7078,4.7078,4.7078,4.6888,4.6901,4.6912,4.693,4.6943,4.6957,4.6965,4.6976,4.6988,4.7004,4.7016,4.7026,4.704,4.7054,4.7066,4.707,4.7074,4.7071,4.7076,4.7081,4.7083,4.7084,4.7082,4.7072,4.7072,4.707,4.707,4.707]}]]